TimeHST,TemperatureF,Dew PointF,Humidity,Sea Level PressureIn,VisibilityMPH,Wind Direction,Wind SpeedMPH,Gust SpeedMPH,PrecipitationIn,Events,Conditions,WindDirDegrees,DateUTC
12:53 AM,66.0,61.0,84,29.99,10.0,Calm,Calm,-,N/A,,Mostly Cloudy,0,2013-03-16 10:53:00
1:53 AM,64.0,61.0,90,29.98,10.0,Calm,Calm,-,N/A,,Partly Cloudy,0,2013-03-16 11:53:00
2:53 AM,64.9,61.0,87,29.96,10.0,Calm,Calm,-,N/A,,Mostly Cloudy,0,2013-03-16 12:53:00
3:53 AM,64.0,60.1,87,29.96,10.0,Calm,Calm,-,N/A,,Partly Cloudy,0,2013-03-16 13:53:00
4:53 AM,64.0,59.0,84,29.96,10.0,Calm,Calm,-,N/A,,Mostly Cloudy,0,2013-03-16 14:53:00
5:05 AM,64.4,59.0,83,29.95,10.0,Calm,Calm,-,N/A,,Mostly Cloudy,0,2013-03-16 15:05:00
5:53 AM,66.0,55.9,70,29.99,10.0,NW,8.1,-,N/A,,Clear,310,2013-03-16 15:53:00
6:29 AM,64.4,55.4,73,29.98,10.0,NNW,5.8,-,N/A,,Partly Cloudy,340,2013-03-16 16:29:00
6:53 AM,64.9,55.0,70,30.01,10.0,NW,6.9,-,N/A,,Clear,320,2013-03-16 16:53:00
7:53 AM,66.9,55.9,68,30.02,10.0,NNW,4.6,-,N/A,,Clear,340,2013-03-16 17:53:00
8:53 AM,69.1,53.1,57,30.04,10.0,NW,6.9,-,N/A,,Clear,320,2013-03-16 18:53:00
9:53 AM,73.0,52.0,48,30.04,10.0,NNW,6.9,-,N/A,,Clear,340,2013-03-16 19:53:00
10:53 AM,75.9,53.1,45,30.02,10.0,NNW,9.2,17.3,N/A,,Clear,340,2013-03-16 20:53:00
11:53 AM,75.0,54.0,48,30.01,10.0,NW,13.8,23.0,N/A,,Clear,310,2013-03-16 21:53:00
12:53 PM,75.9,55.0,48,29.98,10.0,WNW,13.8,19.6,N/A,,Scattered Clouds,290,2013-03-16 22:53:00
1:53 PM,78.1,55.9,46,29.97,10.0,WNW,17.3,25.3,N/A,,Partly Cloudy,290,2013-03-16 23:53:00
2:53 PM,79.0,55.0,44,29.95,10.0,NW,12.7,23.0,N/A,,Mostly Cloudy,320,2013-03-17 00:53:00
3:53 PM,78.1,52.0,40,29.95,10.0,WNW,16.1,20.7,N/A,,Partly Cloudy,300,2013-03-17 01:53:00
4:53 PM,73.9,50.0,43,29.96,10.0,North,8.1,-,N/A,,Clear,10,2013-03-17 02:53:00
5:19 PM,73.4,51.8,47,29.94,10.0,North,6.9,-,N/A,,Partly Cloudy,10,2013-03-17 03:19:00
5:53 PM,72.0,54.0,53,29.97,10.0,Variable,6.9,-,N/A,,Clear,0,2013-03-17 03:53:00
6:53 PM,70.0,54.0,57,30.01,10.0,Variable,3.5,-,N/A,,Clear,0,2013-03-17 04:53:00
7:53 PM,66.9,55.0,66,30.03,10.0,Calm,Calm,-,N/A,,Clear,0,2013-03-17 05:53:00
8:53 PM,66.0,55.9,70,30.05,10.0,Calm,Calm,-,N/A,,Clear,0,2013-03-17 06:53:00
9:38 PM,64.4,55.4,73,30.04,10.0,Calm,Calm,-,N/A,,Partly Cloudy,0,2013-03-17 07:38:00
9:53 PM,64.0,55.9,75,30.05,10.0,Calm,Calm,-,N/A,,Clear,0,2013-03-17 07:53:00
10:53 PM,64.0,55.9,75,30.05,10.0,Calm,Calm,-,N/A,,Clear,0,2013-03-17 08:53:00
11:53 PM,64.9,55.0,70,30.04,10.0,Calm,Calm,-,N/A,,Clear,0,2013-03-17 09:53:00